Weather Roundup
Issued by NWS

Home | Current Version | Previous Version | Text Only | Print | Product List | Glossary On
Versions: 1 2 3 4 5 6 7 8 9 10 11 12 13 14 15 16 17 18 19 20 21 22 23 24 25 26 27 28 29 30 31 32 33 34 35 36 37 38 39 40 41 42 43 44 45 46 47 48 49 50
000
NZUS93 KARX 231010
HRRWXR

CURRENT HOURLY OBSERVATIONS ACROSS
MUCH OF THE UPPER MISSISSIPPI VALLEY
NATIONAL WEATHER SERVICE LA CROSSE WI
400 AM CST TUE JAN 23 2018


...SOUTHEAST MINNESOTA...


CITY           SKY/WX    TMP DP  RH WIND       PRES   REMARKS
ROCHESTER      FLURRIES  22  20  92 NW23G30   29.79R WCI   6
ROCHESTER/MAYO CLOUDY    23  20  90 NW14G22   29.80R WCI  10
WINONA         LGT SNOW  28  25  86 NW8       29.77R WCI  20
AUSTIN         MOCLDY    23  19  86 N15G26    29.81R WCI  10
ALBERT LEA     CLOUDY    25  19  80 NW15G23   29.84R WCI  12
DODGE CENTER   CLOUDY    21  19  93 NW15      29.81R WCI   8
PRESTON        CLOUDY    24  20  87 N15G22    29.77R WCI  11
OWATONNA       CLOUDY    23  18  80 NW17      29.85  WCI   9
FARIBAULT      FAIR      21  16  79 NW13G22   29.87R WCI   9
$$

...ELSEWHERE IN MINNESOTA...


CITY           SKY/WX    TMP DP  RH WIND       PRES   REMARKS
MINNEAPOLIS    FAIR      21  15  78 N20       29.89R WCI   6
INTNL FALLS    FAIR       7   2  80 N8        30.04R WCI  -6
DULUTH         CLOUDY    10   5  80 N14       29.88S WCI  -6
RED WING       CLOUDY    25  16  68 NW10      29.84R WCI  15
REDWOOD FALLS  PTCLDY    22  18  85 NW13      29.98R WCI  10
MANKATO        FAIR      22  16  78 NW16      29.91R WCI   8
WORTHINGTON    FLURRIES  22  20  92 N22       29.96R WCI   6
FAIRMONT       CLOUDY    23  21  92 NW23      29.92R WCI   7
$$

...SOUTHWEST WISCONSIN...


CITY           SKY/WX    TMP DP  RH WIND       PRES   REMARKS
LA CROSSE      LGT SNOW  27  22  81 N14       29.76R WCI  16
PRAIRIE DU CHI CLOUDY    30  24  79 NW15      29.72R WCI  19
BOSCOBEL       CLOUDY    31  32 100 N13       29.70R WCI  21
LONE ROCK      CLOUDY    30  25  81 NW18G28   29.67R WCI  18
PLATTEVILLE    CLOUDY    31  31 100 N20       29.65R WCI  19
FORT MC COY    LGT SNOW  25  22  89 NW9G18    29.73R WCI  15
CAMP DOUGLAS   LGT SNOW  26  24  91 NW14      29.68R FOG     WCI  14
MAUSTON-NEW LI CLOUDY    27  23  84 NW12G21   29.66R FOG     WCI  17
VIROQUA        CLOUDY    26  25  94 NW16G23   29.68R WCI  14
WIS DELLS      CLOUDY    27  24  85 NW10G17   29.64R WCI  18
$$

...ELSEWHERE IN WISCONSIN...


CITY           SKY/WX    TMP DP  RH WIND       PRES   REMARKS
MILWAUKEE      LGT SNOW  31  30  96 NW12      29.54R FOG     WCI  22
MADISON        CLOUDY    30  26  85 N13G23    29.61R WCI  20
GREEN BAY      CLOUDY    29  25  85 N15       29.59R FOG     WCI  18
EAU CLAIRE     CLOUDY    23  19  85 N15G24    29.77R WCI  10
BLACK RVR FLS  LGT SNOW  25  23  92 N8        29.73R WCI  16
MEDFORD        LGT SNOW  20  16  84 N15G24    29.67R WCI   7
WAUSAU         LGT SNOW  22  18  85 N15G22    29.64R FOG     WCI   9
WIS RAPIDS     NOT AVBL
MARSHFIELD     LGT SNOW  22  19  89 N12       29.66R FOG     WCI  10
RICE LAKE      CLOUDY    21  18  88 NW12G17   29.82R WCI   9
$$

...NORTHEAST IOWA...


CITY           SKY/WX    TMP DP  RH WIND       PRES   REMARKS
WATERLOO       CLOUDY    27  22  81 N22G30    29.78R WCI  13
DUBUQUE        CLOUDY    30  27  88 N23       29.65R WCI  17
DECORAH        CLOUDY    25  23  93 N20G29    29.73R WCI  11
MASON CITY     PTCLDY    24  21  88 N21       29.84R WCI   9
CHARLES CITY   LGT RAIN  27  27 100 N21G26    29.80R WCI  13
OELWEIN        CLOUDY    28  28 100 N23G30    29.75R WCI  14
$$

...ELSEWHERE IN IOWA...


CITY           SKY/WX    TMP DP  RH WIND       PRES   REMARKS
DES MOINES     CLOUDY    30  24  78 NW15G26   29.86R WCI  19
IOWA CITY      CLOUDY    34  28  79 NW16G23   29.73R WCI  24
FORT DODGE     CLOUDY    25  22  88 N15G24    29.89R WCI  13
MARSHALLTOWN   CLOUDY    28  25  88 N21G30    29.81R WCI  15
CEDAR RAPIDS   CLOUDY    32  27  81 NW24G30   29.72R WCI  19
$$

...NORTHERN ILLINOIS...


CITY           SKY/WX    TMP DP  RH WIND       PRES   REMARKS
CHICAGO-OHARE  LGT RAIN  35  32  88 W10       29.53R WCI  27
CHICAGO-MIDWAY LGT SNOW  36  33  89 W12       29.54R FOG     WCI  28
MOLINE         CLOUDY    35  33  92 NW12      29.65R WCI  27
ROCKFORD       LGT SNOW  32  29  88 N13       29.61R FOG     WCI  22
PEORIA         CLOUDY    36  34  92 W8        29.64R WCI  30
$$

NOTE: "FAIR" INDICATES FEW OR NO CLOUDS BELOW 12,000 FEET WITH NO
SIGNIFICANT WEATHER AND/OR OBSTRUCTIONS TO VISIBILITY. WIND
SPEEDS ARE IN MILES-PER-HOUR.




USA.gov is the U.S. government's official web portal to all federal, state and local government web resources and services.